Погода в Газе

Палестина     31°30′54″N   34°27′31″E
темп.,
°C
ветер,
м/с
пор.,
м/с
влажн.,
%
обл.,
%
осадки,
мм/ч
давл.,
гПа
погр.,
м
17 апреля, сб
сб1700:00+18с33700 0.0 101551
03:00+17с22800 0.0 101419
06:00+17сз22830 0.0 101519
09:00+21ююв11630 0.0 1015202
12:00+25сз43484 0.0 1016435
15:00+25ссз66505 0.0 1014368
18:00+24ссв565248 0.0 1013201
21:00+20с597416 0.0 1015153
18 апреля, вс
вс1800:00+19с34715 0.0 101656
03:00+18всв11733 0.0 101513
06:00+20ю44482 0.0 101420
09:00+28ююв46270 0.0 1015231
12:00+34в24205 0.0 10141109
15:00+28с89385 0.0 1014251
18:00+29ссв68345 0.0 1012203
21:00+26св57390 0.0 101370
19 апреля, пн
пн1900:00+28всв44285 0.0 101224
03:00+27юв33252 0.0 101116
06:00+27юв4426100 0.0 101135
09:00+33юв71219100 0.0 1011475
12:00+38ююв10101265 0.0 10101605
15:00+34сз4522100 0.0 1009684
18:00+31с3427100 0.0 100897
21:00+30всв4423100 0.0 100821
20 апреля, вт
вт2000:00+29зюз2324100 0.0 100812
03:00+23зюз71157100 0.0 1009195
06:00+19з568935 0.0 1012278
09:00+20зсз6580100 0.0 1015571
12:00+22зсз547045 0.2 1015612
15:00+22сз76620 0.3 1014580
18:00+20ссз67640 0.0 1015565
21:00+18с46750 0.0 1017390
21 апреля, ср
ср2100:00+17с56755 0.0 1017323
03:00+17с34775 0.0 1017185
06:00+16с34805 0.0 1017147
09:00+19с446352 0.0 1019618
12:00+21ссз6655100 0.0 1018683
15:00+21ссз8856100 0.0 1018669
18:00+19с7860100 0.0 1018575
21:00+17с4668100 0.0 1019237